Weather Roundup
Issued by NWS Corpus Christi, TX

Home | Current Version | Previous Version | Text Only | Print | Product List | Glossary On
Versions: 1 2 3 4 5 6 7 8 9 10 11 12 13 14 15 16 17 18 19 20 21 22 23 24 25 26 27 28 29 30 31 32 33 34 35 36 37 38 39 40 41 42 43 44 45 46 47 48 49 50
000
ASUS44 KCRP 021310
HRRCRP

SOUTH TEXAS REGIONAL WEATHER ROUNDUP
NATIONAL WEATHER SERVICE CORPUS CHRISTI TX
800 AM CDT TUE JUN 02 2015


TXZ229>244-021400-
...CORPUS CHRISTI AREA OBSERVATIONS...

CITY           SKY/WX    TMP DP  RH WIND       PRES   REMARKS
CORPUS CHRISTI MOSUNNY   75  72  90 CALM      30.01R
NAS CORPUS CHR MOSUNNY   77  75  93 CALM      30.01R
ROCKPORT       SUNNY     78  73  84 CALM      30.01R
KINGSVILLE NAS MOSUNNY   72  72 100 CALM      30.02R FOG
ALICE          PTSUNNY   72  71  97 CALM      30.01R FOG
FALFURRIAS     SUNNY     71  70  95 CALM      30.01R
$$

...VICTORIA AREA OBSERVATIONS...

CITY           SKY/WX    TMP DP  RH WIND       PRES   REMARKS
VICTORIA       SUNNY     74  73  97 CALM      30.03R FOG
BEEVILLE       FAIR      72  72 100 CALM      30.02R FOG
PLEASANTON     FOG       69  68  97 CALM      30.04R VSB 1/4
SAN ANTONIO    MOSUNNY   74  69  85 CALM      30.05R
$$

...LAREDO AREA OBSERVATIONS...

CITY           SKY/WX    TMP DP  RH WIND       PRES   REMARKS
LAREDO         SUNNY     74  70  87 SE9       30.03R
COTULLA        SUNNY     73  70  90 S5        30.01R
DEL RIO        SUNNY     71  67  87 SE8       30.00R
MCALLEN        SUNNY     77  71  82 E5        30.01S
HEBBRONVILLE     N/A     69  68  98 CALM      30.03R
$$

...OTHER TEXAS OBSERVATIONS...

CITY           SKY/WX    TMP DP  RH WIND       PRES   REMARKS
BROWNSVILLE    SUNNY     77  73  87 CALM      30.00R
HOUSTON        MOSUNNY   73  69  87 NE5       30.03R
COL. STATION   SUNNY     73  65  75 E3        30.04R
AUSTIN         MOSUNNY   70  69  97 CALM      30.04R
WACO           MOSUNNY   68  65  90 NE3       30.05R
FORT WORTH     PTSUNNY   70  65  84 CALM      30.04S
WICHITA FALLS  MOSUNNY   69  63  81 S12       30.00R
LUBBOCK        MOSUNNY   68  61  78 S9        30.05R
EL PASO        MOSUNNY   75  46  35 SE9       30.05R
$$

...MARINE OBSERVATIONS...

STATION/POSITION TIME  SKY/WX   TEMP    WIND        PRES    VSBY  WAVE   SWELL
                                AIR SEA DIR/SP/G                  HT/PER HT/PER
                 (UTC)          (F)     (DEG/KT/KT) (MB)    (MI)  (FT/S) (FT/S)
PORT ARANSAS     1300            80 83  120/  4/  6 1016.9R
BUOY 90 E PORT A 1250            81 81   CALM  /  2 1016.9R         1/ 6
BUOY 45 SE BAFFI 1250            80 81  130/  6/  8 1015.8R         1/ 6   2/ 6
BUOY 200 E PT IS 1250            81 82   70/  4/  6 1016.4R         1/ 5   2/ 5
BUOY 15 E GALVES 1250            80 81  350/  8/ 10 1016.2R         1
$$



USA.gov is the U.S. government's official web portal to all federal, state and local government web resources and services.